Regional Weather Roundup
Issued by NWS

Home | Current Version | Previous Version | Text Only | Print | Product List | Glossary Off
Versions: 1 2 3 4 5 6 7 8 9 10 11 12 13 14 15 16 17 18 19 20 21 22 23 24 25 26 27 28 29 30 31 32 33 34 35 36 37 38 39 40 41 42 43 44 45 46 47 48 49 50

000
ASUS43 KFSD 210210
RWRSD

WEATHER ROUNDUP FOR SOUTH DAKOTA
NATIONAL WEATHER SERVICE SIOUX FALLS SD
900 PM CDT MON APR 20 2015

NOTE: "FAIR" INDICATES FEW OR NO CLOUDS BELOW 12,000 FEET WITH NO
SIGNIFICANT WEATHER AND/OR OBSTRUCTIONS TO VISIBILITY.


SDZ001>005-009-010-012>017-210300-
NORTHWEST AND NORTH CENTRAL SOUTH DAKOTA

CITY           SKY/WX    TMP DP  RH WIND       PRES   REMARKS
BUFFALO          N/A     42  21  43 N14       29.80R
FAITH            N/A     45  16  31 NW14      29.82R
MOBRIDGE       CLEAR     46  12  25 NW12      29.74R
$$

SDZ012>016-024>037-041>051-057-063-072>074-210300-
SOUTHWEST AND SOUTH CENTRAL SOUTH DAKOTA

CITY           SKY/WX    TMP DP  RH WIND       PRES   REMARKS
RAPID CTY ARPT CLOUDY    41  23  48 N10       29.85R
PIERRE         CLOUDY    48  15  26 NW14      29.78R
CUSTER         CLEAR     40  16  37 NW6       29.85R
ELLSWORTH AFB  CLOUDY    45  22  39 N8        29.85
PHILIP         CLOUDY    49  32  52 N12       29.83R
PINE RIDGE     PTCLDY    42  23  46 N6        29.85R
SPEARFISH      MOCLDY    45  19  36 N9        29.88R
WINNER         CLOUDY    49  13  23 NW14      29.80R
$$

SDZ004>011-016>023-039-040-210300-
NORTHEAST SOUTH DAKOTA

CITY           SKY/WX    TMP DP  RH WIND       PRES   REMARKS
ABERDEEN       CLEAR     41  25  53 N12       29.72R
WATERTOWN      PTCLDY    39  25  57 NW17      29.68R
BROOKINGS      CLEAR     39  27  60 N10       29.69R
SISSETON         N/A     39  31  72 NW18G25   29.66R
$$

SDZ017-020-022-023-036>040-048>070-210300-
SOUTHEAST SOUTH DAKOTA

CITY           SKY/WX    TMP DP  RH WIND       PRES   REMARKS
SIOUX FALLS    PTCLDY    45  18  34 NW10      29.70R
HURON          CLEAR     42  11  28 NW12      29.72R
CHAMBERLAIN    MOCLDY    45   8  21 NW10      29.78R
MITCHELL       CLEAR     47   5  18 NW15      29.74R
YANKTON        CLEAR     46   9  21 W13       29.74S
$$

ABBREVIATIONS USED IN REMARKS
   TC - TEMPERATURE IN CELSIUS
  WCI - WIND CHILL INDEX
   HX - HEAT INDEX
  VSB - VISIBILITY




USA.gov is the U.S. government's official web portal to all federal, state and local government web resources and services.